This is the latest recevied weather packets stored in our database for station/object KE0LFX. If no packets are shown the sender has not sent any weather packets the latest 10 day(s).
| Time | Temp. | Humidity | Pressure | Rain* | Wind** | Luminosity | Snow |
|---|---|---|---|---|---|---|---|
| 1777554322 | 7.22° C | 71% | 1020.9 hPa | 0 mm | - | 55 W/m² | - |
| 1777554020 | 7.22° C | 71% | 1020.6 hPa | 0 mm | - | 43 W/m² | - |
| 1777553716 | 7.22° C | 72% | 1020.8 hPa | 0 mm | - | 47 W/m² | - |
| 1777553413 | 7.22° C | 73% | 1020.7 hPa | 0 mm | - | 44 W/m² | - |
| 1777553109 | 6.67° C | 73% | 1020.7 hPa | 0 mm | - | 40 W/m² | - |
| 1777552808 | 6.67° C | 74% | 1020.9 hPa | 0 mm | - | 35 W/m² | - |
| 1777552504 | 6.67° C | 73% | 1020.9 hPa | 0 mm | - | 31 W/m² | - |
| 1777552200 | 6.67° C | 72% | 1020.9 hPa | 0 mm | - | 34 W/m² | - |
| 1777551898 | 6.67° C | 73% | 1020.7 hPa | 0 mm | - | 35 W/m² | - |
| 1777551595 | 6.67° C | 73% | 1020.7 hPa | 0 mm | - | 31 W/m² | - |
| 1777551293 | 6.11° C | 75% | 1020.9 hPa | 0 mm | - | 35 W/m² | - |
| 1777550989 | 5.56° C | 76% | 1020.6 hPa | 0 mm | - | 43 W/m² | - |
| 1777550686 | 5.56° C | 76% | 1020.8 hPa | 0 mm | - | 42 W/m² | - |
| 1777550382 | 5.56° C | 76% | 1020.8 hPa | 0 mm | - | 30 W/m² | - |
| 1777550078 | 5.56° C | 74% | 1020.9 hPa | 0 mm | - | 24 W/m² | - |
| 1777549775 | 5.56° C | 73% | 1020.8 hPa | 0 mm | - | 18 W/m² | - |
| 1777549471 | 5.56° C | 72% | 1020.8 hPa | 0 mm | - | 15 W/m² | - |
| 1777549167 | 5.56° C | 71% | 1020.9 hPa | 0 mm | - | 15 W/m² | - |
| 1777548864 | 5.56° C | 72% | 1020.6 hPa | 0 mm | - | 13 W/m² | - |
| 1777548561 | 5.56° C | 71% | 1020.5 hPa | 0 mm | - | 12 W/m² | - |
| 1777548257 | 5° C | 73% | 1020.5 hPa | 0 mm | - | 9 W/m² | - |
| 1777547954 | 5° C | 75% | 1020.6 hPa | 0 mm | - | 6 W/m² | - |
| 1777547650 | 4.44° C | 77% | 1020.4 hPa | 0 mm | - | 4 W/m² | - |
| 1777547347 | 4.44° C | 76% | 1020.5 hPa | 0 mm | - | 2 W/m² | - |
| 1777547045 | 4.44° C | 75% | 1020.5 hPa | 0 mm | - | 1 W/m² | - |
* Rain latest hour (hover to see other rain measurements)
** Current wind speed in m/s (hover to see current wind gust speed)